Location: Calvatone
(45.1167°N, 10.4333°E)
Time: 09:27:28
(UTC+00:00)

METEOR M2 - Pass Details

Date: 08 December 2023
Orbit: 818 x 826 km, 98.4° (Epoch: 24 February)

Event Time Altitude Azimuth Distance (km) Brightness Sun altitude
Rises 03:57:56 0° 28° (NNE) 3,368 ? -28.3°
Reaches altitude 10° 04:01:02 10° 46° (NE) 2,428 ? -27.8°
Maximum altitude 04:04:44 19° 90° (E) 1,878 ? -27.1°
Drops below altitude 10° 04:08:26 10° 134° (SE) 2,412 ? -26.5°
Sets 04:11:28 0° 152° (SSE) 3,338 ? -25.9°
